AZA235 LTFM-LIMC

Flight info

Callsign AZA235
Flight time N/A
Altitude 40000
Route VADEN1D/35L VADEN N618 GOL Y520 LUKOV Q8 DOLAP DCT OBLAK DCT VEBAR DCT UZVEZ DCT ELTIB DCT PEVAL DCT ADOSA/N0476F410 DCT IDREK DCT ELTAR DCT NOBMI DCT PEXUG
Aircraft B772/H-SDE2E3FGHIJ5LORVWXY/LB1D1

Departure

Time N/A
Airport İstanbul Airport (LTFM)

Arrival

Time 2026-05-05 19:59
Airport Milan Malpensa International Airport (LIMC)
Time Latitude Longitude Altitude Speed Heading
2026-05-05 18:18 43.41920 22.60628 39888 ft 450 kts 292°
2026-05-05 18:18 43.44192 22.52597 39887 ft 451 kts 292°
2026-05-05 18:19 43.46438 22.44544 39906 ft 451 kts 292°
2026-05-05 18:19 43.48673 22.36464 39991 ft 452 kts 290°
2026-05-05 18:20 43.50563 22.28204 39978 ft 451 kts 288°
2026-05-05 18:20 43.52341 22.19947 39982 ft 449 kts 288°
2026-05-05 18:21 43.54113 22.11723 39980 ft 447 kts 288°
2026-05-05 18:21 43.55890 22.03515 39981 ft 446 kts 288°
2026-05-05 18:22 43.57665 21.95321 39977 ft 446 kts 288°
2026-05-05 18:22 43.59437 21.87108 39983 ft 447 kts 288°
2026-05-05 18:23 43.61206 21.78878 39983 ft 448 kts 288°
2026-05-05 18:23 43.62973 21.70623 39972 ft 448 kts 288°
2026-05-05 18:24 43.64729 21.62383 39962 ft 447 kts 288°
2026-05-05 18:24 43.66478 21.54145 39969 ft 447 kts 287°
2026-05-05 18:25 43.68231 21.45858 39965 ft 446 kts 287°
2026-05-05 18:25 43.69967 21.37617 39963 ft 447 kts 287°
2026-05-05 18:26 43.71699 21.29365 39952 ft 447 kts 287°
2026-05-05 18:26 43.73424 21.21107 39955 ft 447 kts 287°
2026-05-05 18:27 43.75146 21.12835 39958 ft 448 kts 287°
2026-05-05 18:27 43.76865 21.04543 39956 ft 448 kts 287°
2026-05-05 18:28 43.79432 20.92094 39957 ft 448 kts 287°
2026-05-05 18:28 43.81134 20.83798 39955 ft 448 kts 287°
2026-05-05 18:29 43.82831 20.75495 39951 ft 448 kts 287°
2026-05-05 18:29 43.84520 20.67196 39958 ft 447 kts 287°
2026-05-05 18:30 43.86199 20.58906 39941 ft 447 kts 287°
2026-05-05 18:30 43.87871 20.50622 39937 ft 446 kts 287°
2026-05-05 18:31 43.89535 20.42344 39944 ft 446 kts 287°
2026-05-05 18:31 43.91191 20.34070 39951 ft 445 kts 287°
2026-05-05 18:32 43.92840 20.25797 39963 ft 445 kts 286°
2026-05-05 18:32 43.94480 20.17533 39966 ft 444 kts 286°
2026-05-05 18:33 43.96114 20.09271 39988 ft 444 kts 286°
2026-05-05 18:33 43.97741 20.01008 39987 ft 443 kts 286°
2026-05-05 18:34 43.99360 19.92744 39989 ft 443 kts 286°
2026-05-05 18:34 44.00971 19.84489 40001 ft 443 kts 286°
2026-05-05 18:35 44.02576 19.76233 39994 ft 443 kts 286°
2026-05-05 18:35 44.04174 19.67974 40007 ft 443 kts 286°
2026-05-05 18:36 44.05767 19.59707 40005 ft 443 kts 285°
2026-05-05 18:36 44.07354 19.51435 40008 ft 442 kts 285°
2026-05-05 18:37 44.08934 19.43168 40011 ft 442 kts 285°
2026-05-05 18:37 44.10507 19.34900 40014 ft 442 kts 285°
2026-05-05 18:38 44.12074 19.26629 40022 ft 442 kts 285°
2026-05-05 18:38 44.13371 19.19758 40023 ft 441 kts 285°
2026-05-05 18:39 44.14860 19.11476 40029 ft 440 kts 284°
2026-05-05 18:39 44.16256 19.03176 40028 ft 440 kts 283°
2026-05-05 18:40 44.17647 18.94888 40036 ft 439 kts 283°
2026-05-05 18:40 44.19044 18.86604 40035 ft 439 kts 283°
2026-05-05 18:41 44.20435 18.78338 40035 ft 438 kts 283°
2026-05-05 18:41 44.21818 18.70080 40039 ft 438 kts 283°
2026-05-05 18:42 44.23195 18.61808 40050 ft 438 kts 283°
2026-05-05 18:42 44.24572 18.53525 40040 ft 438 kts 283°
2026-05-05 18:43 44.25941 18.45234 40035 ft 438 kts 283°
2026-05-05 18:43 44.27301 18.36951 40032 ft 438 kts 283°
2026-05-05 18:44 44.28656 18.28668 40038 ft 438 kts 283°
2026-05-05 18:44 44.29855 18.20334 40028 ft 438 kts 277°
2026-05-05 18:45 44.30129 18.11850 40035 ft 438 kts 271°
2026-05-05 18:45 44.30159 18.03365 40040 ft 438 kts 271°
2026-05-05 18:46 44.30199 17.94867 40040 ft 437 kts 271°
2026-05-05 18:46 44.30248 17.86382 40035 ft 437 kts 271°
2026-05-05 18:47 44.30295 17.77911 40044 ft 436 kts 270°
2026-05-05 18:47 44.30337 17.69447 40046 ft 437 kts 270°
2026-05-05 18:48 44.30373 17.60983 40055 ft 436 kts 270°
2026-05-05 18:48 44.30402 17.52518 40051 ft 437 kts 270°
2026-05-05 18:49 44.30425 17.44043 40052 ft 437 kts 270°
2026-05-05 18:49 44.30442 17.35551 40054 ft 438 kts 270°
2026-05-05 18:50 44.30452 17.27042 40057 ft 439 kts 270°
2026-05-05 18:50 44.30456 17.18471 40051 ft 440 kts 270°
2026-05-05 18:51 44.30453 17.09970 40055 ft 441 kts 270°
2026-05-05 18:51 44.30445 17.01413 40055 ft 441 kts 270°
2026-05-05 18:52 44.30431 16.92869 40045 ft 441 kts 270°
2026-05-05 18:52 44.30654 16.84320 40055 ft 441 kts 278°
2026-05-05 18:53 44.32065 16.75982 40062 ft 442 kts 288°
2026-05-05 18:53 44.34399 16.68017 40061 ft 444 kts 292°
2026-05-05 18:54 44.36841 16.60081 40062 ft 445 kts 292°
2026-05-05 18:54 44.39264 16.52120 40060 ft 446 kts 291°
2026-05-05 18:55 44.41665 16.44122 40063 ft 446 kts 291°
2026-05-05 18:55 44.44053 16.36114 40045 ft 447 kts 291°
2026-05-05 18:56 44.46438 16.28084 40058 ft 447 kts 291°
2026-05-05 18:56 44.48819 16.20040 40054 ft 447 kts 291°
2026-05-05 18:57 44.51193 16.11999 40058 ft 447 kts 291°
2026-05-05 18:57 44.53545 16.04007 40051 ft 446 kts 291°
2026-05-05 18:58 44.55920 15.95913 40067 ft 446 kts 291°
2026-05-05 18:58 44.58270 15.87877 40030 ft 444 kts 291°
2026-05-05 18:59 44.60603 15.79875 40053 ft 443 kts 291°
2026-05-05 18:59 44.62928 15.71872 40047 ft 442 kts 290°
2026-05-05 19:00 44.65244 15.63877 40065 ft 441 kts 290°
2026-05-05 19:00 44.67547 15.55900 40047 ft 440 kts 290°
2026-05-05 19:01 44.69836 15.47945 40042 ft 439 kts 290°
2026-05-05 19:01 44.72114 15.40004 40037 ft 437 kts 290°
2026-05-05 19:02 44.74387 15.32054 40038 ft 441 kts 290°
2026-05-05 19:02 44.76675 15.24024 40034 ft 441 kts 290°
2026-05-05 19:03 44.78947 15.16030 40025 ft 438 kts 290°
2026-05-05 19:03 44.81198 15.08078 40031 ft 435 kts 290°
2026-05-05 19:04 44.83430 15.00173 40018 ft 434 kts 290°
2026-05-05 19:04 44.85652 14.92276 40028 ft 434 kts 289°
2026-05-05 19:05 44.87870 14.84363 40020 ft 435 kts 289°
2026-05-05 19:05 44.90096 14.76398 40030 ft 436 kts 289°
2026-05-05 19:06 44.92320 14.68418 40028 ft 438 kts 289°
2026-05-05 19:06 44.94545 14.60405 40030 ft 439 kts 289°
2026-05-05 19:07 44.96796 14.52271 40027 ft 440 kts 289°
2026-05-05 19:07 44.98991 14.44317 40024 ft 440 kts 289°
2026-05-05 19:08 45.01206 14.36263 40041 ft 440 kts 289°
2026-05-05 19:08 45.03429 14.28150 40040 ft 440 kts 289°
2026-05-05 19:09 45.05632 14.20084 40039 ft 440 kts 289°
2026-05-05 19:09 45.07831 14.12006 40032 ft 439 kts 289°
2026-05-05 19:10 45.10025 14.03919 40033 ft 439 kts 289°
2026-05-05 19:10 45.12205 13.95855 40036 ft 440 kts 289°
2026-05-05 19:11 45.14386 13.87762 40030 ft 440 kts 289°
2026-05-05 19:11 45.16565 13.79647 40018 ft 441 kts 289°
2026-05-05 19:12 45.18744 13.71506 40014 ft 442 kts 289°
2026-05-05 19:12 45.20920 13.63350 40006 ft 443 kts 289°
2026-05-05 19:13 45.23092 13.55177 40005 ft 443 kts 288°
2026-05-05 19:13 45.25277 13.46927 39999 ft 444 kts 288°
2026-05-05 19:14 45.27441 13.38728 39995 ft 444 kts 288°
2026-05-05 19:14 45.29602 13.30518 39995 ft 444 kts 288°
2026-05-05 19:15 45.31563 13.22283 40005 ft 442 kts 281°
2026-05-05 19:15 45.32923 13.13713 39991 ft 442 kts 280°
2026-05-05 19:16 45.34245 13.05188 39987 ft 442 kts 281°
2026-05-05 19:16 45.35351 12.98107 39983 ft 442 kts 281°
2026-05-05 19:17 45.36690 12.89578 39986 ft 442 kts 281°
2026-05-05 19:17 45.38026 12.81051 39992 ft 442 kts 280°
2026-05-05 19:18 45.39360 12.72502 39995 ft 442 kts 280°
2026-05-05 19:18 45.40686 12.63954 39981 ft 443 kts 280°
2026-05-05 19:19 45.42007 12.55393 39986 ft 443 kts 280°
2026-05-05 19:19 45.43322 12.46820 40000 ft 443 kts 279°
2026-05-05 19:20 45.44630 12.38246 39986 ft 444 kts 279°
2026-05-05 19:20 45.45285 12.33940 39763 ft 445 kts 279°
2026-05-05 19:20 45.45934 12.29657 39517 ft 439 kts 279°
2026-05-05 19:21 45.46575 12.25427 39285 ft 435 kts 279°
2026-05-05 19:21 45.47208 12.21236 39053 ft 431 kts 279°
2026-05-05 19:21 45.47835 12.17066 38817 ft 428 kts 279°
2026-05-05 19:21 45.48455 12.12929 38596 ft 426 kts 279°
2026-05-05 19:22 45.49070 12.08821 38311 ft 423 kts 279°
2026-05-05 19:22 45.49679 12.04741 38102 ft 418 kts 279°
2026-05-05 19:22 45.50279 12.00712 37908 ft 414 kts 278°
2026-05-05 19:22 45.50873 11.96710 37703 ft 411 kts 278°
2026-05-05 19:23 45.51460 11.92743 37512 ft 408 kts 278°
2026-05-05 19:23 45.52042 11.88801 37317 ft 405 kts 278°
2026-05-05 19:23 45.52627 11.84829 37132 ft 403 kts 278°
2026-05-05 19:23 45.53198 11.80930 36964 ft 411 kts 278°
2026-05-05 19:24 45.53784 11.76912 36799 ft 417 kts 278°
2026-05-05 19:24 45.54383 11.72815 36648 ft 415 kts 278°
2026-05-05 19:24 45.54969 11.68802 36490 ft 411 kts 277°
2026-05-05 19:24 45.55541 11.64886 36332 ft 407 kts 277°
2026-05-05 19:25 45.56113 11.60949 36178 ft 404 kts 277°
2026-05-05 19:25 45.56679 11.57039 36029 ft 400 kts 277°
2026-05-05 19:25 45.57246 11.53113 35886 ft 397 kts 277°
2026-05-05 19:25 45.57799 11.49271 35766 ft 394 kts 277°
2026-05-05 19:26 45.58347 11.45451 35639 ft 392 kts 277°
2026-05-05 19:26 45.58892 11.41638 35515 ft 391 kts 277°
2026-05-05 19:26 45.59435 11.37832 35401 ft 390 kts 276°
2026-05-05 19:26 45.59975 11.34038 35268 ft 390 kts 276°
2026-05-05 19:27 45.60513 11.30255 35137 ft 389 kts 276°
2026-05-05 19:27 45.61050 11.26460 34975 ft 389 kts 276°
2026-05-05 19:27 45.61584 11.22678 34823 ft 389 kts 276°
2026-05-05 19:27 45.62119 11.18895 34653 ft 388 kts 276°
2026-05-05 19:28 45.62648 11.15124 34488 ft 386 kts 276°
2026-05-05 19:28 45.63176 11.11371 34340 ft 384 kts 276°
2026-05-05 19:28 45.63698 11.07641 34153 ft 382 kts 276°
2026-05-05 19:28 45.64180 11.03929 33977 ft 377 kts 273°
2026-05-05 19:29 45.64445 11.00235 33823 ft 371 kts 268°
2026-05-05 19:29 45.64482 10.96575 33628 ft 366 kts 266°
2026-05-05 19:29 45.64503 10.92950 33409 ft 364 kts 266°
2026-05-05 19:29 45.64533 10.89349 33157 ft 362 kts 266°
2026-05-05 19:30 45.64565 10.85744 32814 ft 363 kts 266°
2026-05-05 19:30 45.64599 10.82143 32507 ft 363 kts 266°
2026-05-05 19:30 45.64635 10.78542 32200 ft 362 kts 266°
2026-05-05 19:30 45.64673 10.74942 31893 ft 362 kts 266°
2026-05-05 19:31 45.64713 10.71348 31572 ft 362 kts 266°
2026-05-05 19:31 45.64751 10.67751 31183 ft 362 kts 266°
2026-05-05 19:31 45.64787 10.64152 30817 ft 362 kts 266°
2026-05-05 19:31 45.64812 10.60563 30475 ft 361 kts 265°
2026-05-05 19:32 45.64811 10.56996 30110 ft 356 kts 265°
2026-05-05 19:32 45.64807 10.53491 29693 ft 351 kts 265°
2026-05-05 19:32 45.64804 10.50021 29282 ft 347 kts 265°
2026-05-05 19:32 45.64823 10.46578 28856 ft 345 kts 266°
2026-05-05 19:33 45.64855 10.43166 28447 ft 342 kts 266°
2026-05-05 19:33 45.64889 10.39777 28051 ft 340 kts 266°
2026-05-05 19:33 45.64949 10.33013 27862 ft 346 kts 266°
2026-05-05 19:34 45.64975 10.29553 27450 ft 350 kts 266°
2026-05-05 19:34 45.65002 10.26082 27062 ft 348 kts 266°
2026-05-05 19:34 45.65029 10.22631 26651 ft 345 kts 266°
2026-05-05 19:35 45.65079 10.15847 25932 ft 339 kts 265°
2026-05-05 19:35 45.65101 10.12488 25560 ft 337 kts 265°
2026-05-05 19:35 45.65121 10.09148 25202 ft 336 kts 265°
2026-05-05 19:35 45.65139 10.05811 24815 ft 335 kts 265°
2026-05-05 19:36 45.65156 10.02478 24417 ft 335 kts 265°
2026-05-05 19:36 45.65173 9.99140 24017 ft 336 kts 265°
2026-05-05 19:36 45.65189 9.95810 23623 ft 335 kts 265°
2026-05-05 19:36 45.65205 9.92478 23179 ft 335 kts 265°
2026-05-05 19:37 45.65219 9.89154 22723 ft 336 kts 265°
2026-05-05 19:37 45.65232 9.85798 22281 ft 337 kts 265°
2026-05-05 19:37 45.65245 9.82417 21827 ft 335 kts 265°
2026-05-05 19:37 45.65257 9.79068 21403 ft 334 kts 265°
2026-05-05 19:38 45.65268 9.75830 20968 ft 332 kts 266°
2026-05-05 19:38 45.65278 9.72542 20536 ft 330 kts 266°
2026-05-05 19:38 45.65287 9.69232 20117 ft 328 kts 266°
2026-05-05 19:38 45.65294 9.66103 19719 ft 327 kts 266°
2026-05-05 19:39 45.65301 9.62865 19307 ft 325 kts 266°
2026-05-05 19:39 45.65307 9.59619 18891 ft 324 kts 266°
2026-05-05 19:39 45.65313 9.56387 18491 ft 322 kts 266°
2026-05-05 19:39 45.65318 9.53192 18173 ft 321 kts 266°
2026-05-05 19:40 45.65323 9.50014 17729 ft 319 kts 266°
2026-05-05 19:40 45.65327 9.46846 17252 ft 319 kts 266°
2026-05-05 19:40 45.65330 9.43674 16731 ft 319 kts 267°
2026-05-05 19:40 45.65332 9.40498 16231 ft 320 kts 267°
2026-05-05 19:41 45.65332 9.37299 15616 ft 322 kts 267°
2026-05-05 19:41 45.65335 9.34090 15125 ft 324 kts 268°
2026-05-05 19:41 45.65349 9.30866 14631 ft 325 kts 268°
2026-05-05 19:41 45.65368 9.27630 14168 ft 326 kts 268°
2026-05-05 19:42 45.65258 9.24451 13655 ft 314 kts 258°
2026-05-05 19:42 45.64609 9.21571 13109 ft 297 kts 244°
2026-05-05 19:42 45.63622 9.19009 12569 ft 287 kts 237°
2026-05-05 19:42 45.62526 9.16621 12055 ft 291 kts 236°
2026-05-05 19:43 45.61372 9.14194 11588 ft 298 kts 235°
2026-05-05 19:43 45.60202 9.11744 11157 ft 298 kts 235°
2026-05-05 19:43 45.59056 9.09334 10988 ft 290 kts 235°
2026-05-05 19:43 45.57926 9.06949 10979 ft 290 kts 235°
2026-05-05 19:44 45.56797 9.04563 10950 ft 291 kts 235°
2026-05-05 19:44 45.55661 9.02155 10628 ft 294 kts 235°
2026-05-05 19:44 45.54522 8.99743 10267 ft 293 kts 235°
2026-05-05 19:44 45.53388 8.97343 9921 ft 292 kts 235°
2026-05-05 19:45 45.52256 8.94950 9535 ft 290 kts 235°
2026-05-05 19:45 45.50957 8.92840 9109 ft 282 kts 215°
2026-05-05 19:45 45.49175 8.91746 8728 ft 280 kts 192°
2026-05-05 19:45 45.47236 8.91576 8345 ft 280 kts 175°
2026-05-05 19:46 45.45319 8.92032 7978 ft 280 kts 169°
2026-05-05 19:46 45.43415 8.92603 7589 ft 279 kts 169°
2026-05-05 19:46 45.41514 8.93157 7227 ft 280 kts 170°
2026-05-05 19:46 45.39582 8.93699 6876 ft 286 kts 170°
2026-05-05 19:47 45.37615 8.94245 6512 ft 288 kts 170°
2026-05-05 19:47 45.35656 8.94783 6141 ft 286 kts 170°
2026-05-05 19:47 45.33722 8.95309 5983 ft 277 kts 170°
2026-05-05 19:47 45.31824 8.95824 5982 ft 273 kts 171°
2026-05-05 19:48 45.30010 8.96315 5959 ft 254 kts 171°
2026-05-05 19:48 45.28348 8.96769 5956 ft 234 kts 171°
2026-05-05 19:48 45.26763 8.97199 5961 ft 230 kts 171°
2026-05-05 19:48 45.25186 8.97625 5831 ft 233 kts 171°
2026-05-05 19:49 45.23586 8.98058 5577 ft 234 kts 171°
2026-05-05 19:49 45.22530 8.98341 5408 ft 231 kts 172°
2026-05-05 19:49 45.20521 8.97936 5040 ft 223 kts 211°
2026-05-05 19:49 45.19479 8.96343 4797 ft 225 kts 243°
2026-05-05 19:50 45.19150 8.94180 4546 ft 225 kts 267°
2026-05-05 19:50 45.19508 8.91989 4286 ft 236 kts 298°
2026-05-05 19:50 45.20664 8.90322 4077 ft 240 kts 327°
2026-05-05 19:50 45.21984 8.88964 3983 ft 233 kts 310°
2026-05-05 19:51 45.23096 8.87271 3973 ft 239 kts 322°
2026-05-05 19:51 45.24541 8.86104 3981 ft 240 kts 334°
2026-05-05 19:51 45.25542 8.85411 3988 ft 241 kts 333°
2026-05-05 19:51 45.27044 8.84363 3989 ft 240 kts 334°
2026-05-05 19:52 45.28574 8.83447 3988 ft 239 kts 339°
2026-05-05 19:52 45.30134 8.82648 3978 ft 238 kts 342°
2026-05-05 19:52 45.31704 8.82045 3974 ft 229 kts 347°
2026-05-05 19:52 45.33228 8.81580 3969 ft 219 kts 348°
2026-05-05 19:53 45.34711 8.81163 3978 ft 217 kts 349°
2026-05-05 19:53 45.36197 8.80753 3993 ft 217 kts 349°
2026-05-05 19:53 45.37680 8.80347 3999 ft 217 kts 349°
2026-05-05 19:53 45.39164 8.79940 3999 ft 217 kts 349°
2026-05-05 19:54 45.40648 8.79532 3985 ft 217 kts 349°
2026-05-05 19:54 45.42126 8.79126 3989 ft 216 kts 349°
2026-05-05 19:54 45.43603 8.78720 3986 ft 216 kts 349°
2026-05-05 19:54 45.45076 8.78314 3996 ft 216 kts 349°
2026-05-05 19:55 45.46567 8.77903 3750 ft 221 kts 349°
2026-05-05 19:55 45.48037 8.77497 3473 ft 211 kts 349°
2026-05-05 19:55 45.49433 8.77112 3200 ft 195 kts 350°
2026-05-05 19:55 45.50734 8.76753 2924 ft 185 kts 350°
2026-05-05 19:56 45.51960 8.76414 2685 ft 176 kts 350°
2026-05-05 19:56 45.53156 8.76084 2467 ft 176 kts 351°
2026-05-05 19:56 45.54348 8.75755 2224 ft 169 kts 351°
2026-05-05 19:56 45.55464 8.75445 2029 ft 161 kts 351°
2026-05-05 19:57 45.56539 8.75148 1785 ft 152 kts 351°
2026-05-05 19:57 45.57549 8.74870 1568 ft 143 kts 351°
2026-05-05 19:57 45.58507 8.74604 1388 ft 140 kts 350°
2026-05-05 19:57 45.59458 8.74341 1190 ft 137 kts 349°
2026-05-05 19:58 45.60383 8.74084 1002 ft 134 kts 349°
2026-05-05 19:58 45.61296 8.73832 817 ft 133 kts 349°
2026-05-05 19:58 45.62198 8.73583 726 ft 125 kts 349°
2026-05-05 19:58 45.62931 8.73376 737 ft 86 kts 348°
2026-05-05 19:59 45.63366 8.73252 741 ft 42 kts 348°
2026-05-05 19:59 45.63559 8.73194 751 ft 31 kts 343°
2026-05-05 19:59 45.63774 8.72994 752 ft 38 kts 314°
2026-05-05 19:59 45.63853 8.72841 752 ft 13 kts 303°
2026-05-05 20:00 45.63902 8.72734 754 ft 13 kts 303°
2026-05-05 20:00 45.63950 8.72626 757 ft 13 kts 299°
2026-05-05 20:00 45.63954 8.72499 759 ft 13 kts 262°
2026-05-05 20:00 45.63935 8.72374 757 ft 13 kts 256°
2026-05-05 20:01 45.63917 8.72256 760 ft 11 kts 255°
2026-05-05 20:01 45.63879 8.72164 756 ft 11 kts 230°